Location: Newark
(44.3248°N, 23.7839°E)
Time: 04:10:15
(UTC+00:00)

CAS-6 - Pass Details

Date: 01 May 2024
Orbit: 607 x 628 km, 97.8° (Epoch: 24 May)

Event Time Altitude Azimuth Distance (km) Brightness Sun altitude
Exits shadow 20:27:17 69° 35° (NE) 661 ? -24.8°
Drops below altitude 10° 20:31:15 10° 351° (N) 1,979 ? -25.1°
Sets 20:33:26 0° 349° (N) 2,886 ? -25.3°
